Time,TemperatureF,DewpointF,PressureIn,WindDirection,WindDirectionDegrees,WindSpeedMPH,WindSpeedGustMPH,Humidity,HourlyPrecipIn,Conditions,Clouds,dailyrainin,SoftwareType,DateUTC
2013-06-13 00:07:00,-999.0,-99.9,29.98,North,-999,-999.0,-999.0,-999,-99.99,,,0.03,weatherlink.com 1.10,2013-06-13 04:07:00,
2013-06-13 00:22:00,-999.0,-99.9,29.98,North,-999,-999.0,-999.0,-999,-99.99,,,0.03,weatherlink.com 1.10,2013-06-13 04:22:00,
2013-06-13 00:37:00,-999.0,-99.9,29.98,North,-999,-999.0,-999.0,-999,-99.99,,,0.00,weatherlink.com 1.10,2013-06-13 04:37:00,
2013-06-13 00:52:00,-999.0,-99.9,29.97,North,-999,-999.0,-999.0,-999,-99.99,,,0.00,weatherlink.com 1.10,2013-06-13 04:52:00,
2013-06-13 01:07:00,-999.0,-99.9,29.97,North,-999,-999.0,-999.0,-999,-99.99,,,0.00,weatherlink.com 1.10,2013-06-13 05:07:00,
2013-06-13 01:22:00,-999.0,-99.9,29.96,North,-999,-999.0,-999.0,-999,-99.99,,,0.00,weatherlink.com 1.10,2013-06-13 05:22:00,
2013-06-13 01:37:00,-999.0,-99.9,29.95,North,-999,-999.0,-999.0,-999,-99.99,,,0.00,weatherlink.com 1.10,2013-06-13 05:37:00,
2013-06-13 01:52:00,-999.0,-99.9,29.96,North,-999,-999.0,-999.0,-999,-99.99,,,0.00,weatherlink.com 1.10,2013-06-13 05:52:00,
2013-06-13 02:07:00,-999.0,-99.9,29.95,North,-999,-999.0,-999.0,-999,-99.99,,,0.00,weatherlink.com 1.10,2013-06-13 06:07:00,
2013-06-13 02:22:00,-999.0,-99.9,29.95,North,-999,-999.0,-999.0,-999,-99.99,,,0.00,weatherlink.com 1.10,2013-06-13 06:22:00,
2013-06-13 02:37:00,-999.0,-99.9,29.95,North,-999,-999.0,-999.0,-999,-99.99,,,0.00,weatherlink.com 1.10,2013-06-13 06:37:00,
2013-06-13 02:53:00,-999.0,-99.9,29.94,North,-999,-999.0,-999.0,-999,-99.99,,,0.00,weatherlink.com 1.10,2013-06-13 06:53:00,
2013-06-13 03:08:00,-999.0,-99.9,29.94,North,-999,-999.0,-999.0,-999,-99.99,,,0.00,weatherlink.com 1.10,2013-06-13 07:08:00,
2013-06-13 03:23:00,-999.0,-99.9,29.94,North,-999,-999.0,-999.0,-999,-99.99,,,0.00,weatherlink.com 1.10,2013-06-13 07:23:00,
2013-06-13 03:38:00,-999.0,-99.9,29.94,North,-999,-999.0,-999.0,-999,-99.99,,,0.00,weatherlink.com 1.10,2013-06-13 07:38:00,
2013-06-13 03:53:00,-999.0,-99.9,29.94,North,-999,-999.0,-999.0,-999,-99.99,,,0.00,weatherlink.com 1.10,2013-06-13 07:53:00,
2013-06-13 04:08:00,-999.0,-99.9,29.94,North,-999,-999.0,-999.0,-999,-99.99,,,0.00,weatherlink.com 1.10,2013-06-13 08:08:00,
2013-06-13 04:23:00,-999.0,-99.9,29.93,North,-999,-999.0,-999.0,-999,-99.99,,,0.00,weatherlink.com 1.10,2013-06-13 08:23:00,
2013-06-13 04:38:00,-999.0,-99.9,29.93,North,-999,-999.0,-999.0,-999,-99.99,,,0.00,weatherlink.com 1.10,2013-06-13 08:38:00,
2013-06-13 04:53:00,-999.0,-99.9,29.93,North,-999,-999.0,-999.0,-999,-99.99,,,0.00,weatherlink.com 1.10,2013-06-13 08:53:00,
2013-06-13 05:08:00,-999.0,-99.9,29.93,North,-999,-999.0,-999.0,-999,-99.99,,,0.00,weatherlink.com 1.10,2013-06-13 09:08:00,
2013-06-13 05:23:00,-999.0,-99.9,29.93,North,-999,-999.0,-999.0,-999,-99.99,,,0.00,weatherlink.com 1.10,2013-06-13 09:23:00,
2013-06-13 05:38:00,-999.0,-99.9,29.93,North,-999,-999.0,-999.0,-999,-99.99,,,0.00,weatherlink.com 1.10,2013-06-13 09:38:00,
2013-06-13 05:53:00,-999.0,-99.9,29.93,North,-999,-999.0,-999.0,-999,-99.99,,,0.00,weatherlink.com 1.10,2013-06-13 09:53:00,
2013-06-13 06:08:00,-999.0,-99.9,29.94,North,-999,-999.0,-999.0,-999,-99.99,,,0.00,weatherlink.com 1.10,2013-06-13 10:08:00,
2013-06-13 06:23:00,-999.0,-99.9,29.94,North,-999,-999.0,-999.0,-999,-99.99,,,0.00,weatherlink.com 1.10,2013-06-13 10:23:00,
2013-06-13 06:38:00,-999.0,-99.9,29.94,North,-999,-999.0,-999.0,-999,-99.99,,,0.00,weatherlink.com 1.10,2013-06-13 10:38:00,
2013-06-13 06:54:00,-999.0,-99.9,29.95,North,-999,-999.0,-999.0,-999,-99.99,,,0.00,weatherlink.com 1.10,2013-06-13 10:54:00,
2013-06-13 07:09:00,75.6,72.0,29.95,West,270,4.0,-999.0,87,-99.99,,,0.00,weatherlink.com 1.10,2013-06-13 11:09:00,
2013-06-13 07:24:00,75.7,72.0,29.96,WNW,282,5.0,-999.0,88,-99.99,,,0.00,weatherlink.com 1.10,2013-06-13 11:24:00,
2013-06-13 07:39:00,75.8,72.0,29.96,WNW,283,7.0,-999.0,88,-99.99,,,0.00,weatherlink.com 1.10,2013-06-13 11:39:00,
2013-06-13 07:54:00,76.1,72.0,29.97,WNW,291,6.0,-999.0,88,-99.99,,,0.00,weatherlink.com 1.10,2013-06-13 11:54:00,
2013-06-13 08:09:00,76.6,73.0,29.98,WNW,286,0.0,-999.0,88,-99.99,,,0.00,weatherlink.com 1.10,2013-06-13 12:09:00,
2013-06-13 08:24:00,77.7,73.0,29.98,WNW,283,5.0,-999.0,86,-99.99,,,0.00,weatherlink.com 1.10,2013-06-13 12:24:00,
2013-06-13 08:39:00,78.8,74.0,29.98,NE,34,7.0,-999.0,85,-99.99,,,0.00,weatherlink.com 1.10,2013-06-13 12:39:00,
2013-06-13 08:55:00,79.5,74.0,29.98,NNW,342,1.0,-999.0,83,-99.99,,,0.00,weatherlink.com 1.10,2013-06-13 12:55:00,
2013-06-13 09:11:00,80.6,75.0,29.98,North,360,1.0,-999.0,83,-99.99,,,0.00,weatherlink.com 1.10,2013-06-13 13:11:00,
2013-06-13 09:27:00,81.5,75.0,29.98,NNW,327,7.0,-999.0,81,-99.99,,,0.00,weatherlink.com 1.10,2013-06-13 13:27:00,
2013-06-13 09:43:00,81.4,75.0,29.98,WNW,288,4.0,-999.0,82,-99.99,,,0.00,weatherlink.com 1.10,2013-06-13 13:43:00,
2013-06-13 10:00:00,82.1,75.0,29.98,NNW,328,9.0,-999.0,78,-99.99,,,0.00,weatherlink.com 1.10,2013-06-13 14:00:00,
2013-06-13 10:17:00,83.7,76.0,29.98,West,281,2.0,-999.0,77,-99.99,,,0.00,weatherlink.com 1.10,2013-06-13 14:17:00,
2013-06-13 10:33:00,83.9,75.0,29.98,NW,317,0.0,-999.0,74,-99.99,,,0.00,weatherlink.com 1.10,2013-06-13 14:33:00,
2013-06-13 10:50:00,85.2,74.0,29.97,NE,38,4.0,-999.0,70,-99.99,,,0.00,weatherlink.com 1.10,2013-06-13 14:50:00,
2013-06-13 11:06:00,85.7,74.0,29.97,WNW,296,1.0,-999.0,67,-99.99,,,0.00,weatherlink.com 1.10,2013-06-13 15:06:00,
2013-06-13 11:22:00,87.2,74.0,29.97,NNW,348,0.0,-999.0,64,-99.99,,,0.00,weatherlink.com 1.10,2013-06-13 15:22:00,
2013-06-13 11:39:00,88.5,74.0,29.97,West,264,6.0,-999.0,62,-99.99,,,0.00,weatherlink.com 1.10,2013-06-13 15:39:00,
2013-06-13 11:56:00,88.9,73.0,29.97,NNW,340,3.0,-999.0,60,-99.99,,,0.00,weatherlink.com 1.10,2013-06-13 15:56:00,
2013-06-13 12:12:00,87.9,73.0,29.96,West,279,8.0,-999.0,62,-99.99,,,0.00,weatherlink.com 1.10,2013-06-13 16:12:00,
2013-06-13 12:28:00,88.7,73.0,29.96,West,275,0.0,-999.0,60,-99.99,,,0.00,weatherlink.com 1.10,2013-06-13 16:28:00,
2013-06-13 12:45:00,89.7,73.0,29.95,NW,321,9.0,-999.0,59,-99.99,,,0.00,weatherlink.com 1.10,2013-06-13 16:45:00,
2013-06-13 13:01:00,88.4,73.0,29.95,WNW,290,6.0,-999.0,61,-99.99,,,0.00,weatherlink.com 1.10,2013-06-13 17:01:00,
2013-06-13 13:18:00,88.2,74.0,29.94,West,277,1.0,-999.0,62,-99.99,,,0.00,weatherlink.com 1.10,2013-06-13 17:18:00,
2013-06-13 13:34:00,87.8,74.0,29.94,WNW,290,7.0,-999.0,63,-99.99,,,0.00,weatherlink.com 1.10,2013-06-13 17:34:00,
2013-06-13 13:50:00,88.3,74.0,29.93,WNW,285,8.0,-999.0,62,-99.99,,,0.00,weatherlink.com 1.10,2013-06-13 17:50:00,
2013-06-13 14:07:00,88.9,73.0,29.92,NNW,331,4.0,-999.0,59,-99.99,,,0.00,weatherlink.com 1.10,2013-06-13 18:07:00,
2013-06-13 14:23:00,89.8,73.0,29.91,West,273,5.0,-999.0,57,-99.99,,,0.00,weatherlink.com 1.10,2013-06-13 18:23:00,
2013-06-13 14:40:00,89.5,73.0,29.91,West,263,2.0,-999.0,58,-99.99,,,0.00,weatherlink.com 1.10,2013-06-13 18:40:00,
2013-06-13 14:57:00,91.7,72.0,29.89,WSW,242,7.0,-999.0,53,-99.99,,,0.00,weatherlink.com 1.10,2013-06-13 18:57:00,
2013-06-13 15:13:00,92.4,72.0,29.89,West,277,4.0,-999.0,52,-99.99,,,0.00,weatherlink.com 1.10,2013-06-13 19:13:00,
2013-06-13 15:29:00,92.5,72.0,29.88,NNW,341,4.0,-999.0,52,-99.99,,,0.00,weatherlink.com 1.10,2013-06-13 19:29:00,
2013-06-13 15:46:00,91.6,73.0,29.87,West,279,0.0,-999.0,54,-99.99,,,0.00,weatherlink.com 1.10,2013-06-13 19:46:00,
2013-06-13 16:02:00,93.0,72.0,29.87,North,360,1.0,-999.0,50,-99.99,,,0.00,weatherlink.com 1.10,2013-06-13 20:02:00,
2013-06-13 16:19:00,96.6,70.0,29.86,NNW,344,1.0,-999.0,42,-99.99,,,0.00,weatherlink.com 1.10,2013-06-13 20:19:00,
2013-06-13 16:35:00,96.3,70.0,29.86,NW,309,0.0,-999.0,42,-99.99,,,0.00,weatherlink.com 1.10,2013-06-13 20:35:00,
2013-06-13 16:51:00,97.1,68.0,29.86,NW,304,1.0,-999.0,38,-99.99,,,0.00,weatherlink.com 1.10,2013-06-13 20:51:00,
2013-06-13 17:08:00,94.5,68.0,29.85,NW,319,2.0,-999.0,42,-99.99,,,0.00,weatherlink.com 1.10,2013-06-13 21:08:00,
2013-06-13 17:23:00,94.0,65.0,29.86,SSW,198,1.0,-999.0,39,-99.99,,,0.00,weatherlink.com 1.10,2013-06-13 21:23:00,
2013-06-13 17:38:00,94.0,67.0,29.86,SW,219,0.0,-999.0,41,-99.99,,,0.00,weatherlink.com 1.10,2013-06-13 21:38:00,
2013-06-13 17:53:00,94.3,67.0,29.85,WSW,243,2.0,-999.0,40,-99.99,,,0.00,weatherlink.com 1.10,2013-06-13 21:53:00,
2013-06-13 18:08:00,94.7,68.0,29.84,WNW,289,3.0,-999.0,42,-99.99,,,0.00,weatherlink.com 1.10,2013-06-13 22:08:00,
2013-06-13 18:23:00,93.8,69.0,29.84,West,267,6.0,-999.0,45,-99.99,,,0.00,weatherlink.com 1.10,2013-06-13 22:23:00,
2013-06-13 18:38:00,93.4,67.0,29.84,West,263,3.0,-999.0,42,-99.99,,,0.00,weatherlink.com 1.10,2013-06-13 22:38:00,
2013-06-13 18:53:00,89.3,69.0,29.85,SW,227,3.0,-999.0,52,-99.99,,,0.03,weatherlink.com 1.10,2013-06-13 22:53:00,
2013-06-13 19:08:00,85.9,69.0,29.85,WSW,242,2.0,-999.0,58,-99.99,,,0.03,weatherlink.com 1.10,2013-06-13 23:08:00,
2013-06-13 19:23:00,87.0,69.0,29.84,West,271,0.0,-999.0,56,-99.99,,,0.03,weatherlink.com 1.10,2013-06-13 23:23:00,
2013-06-13 19:38:00,86.1,69.0,29.84,WSW,250,2.0,-999.0,57,-99.99,,,0.03,weatherlink.com 1.10,2013-06-13 23:38:00,
2013-06-13 19:53:00,85.3,70.0,29.85,WSW,238,3.0,-999.0,60,-99.99,,,0.03,weatherlink.com 1.10,2013-06-13 23:53:00,
2013-06-13 20:08:00,84.7,70.0,29.85,WSW,249,0.0,-999.0,62,-99.99,,,0.03,weatherlink.com 1.10,2013-06-14 00:08:00,
2013-06-13 20:23:00,82.9,73.0,29.85,WNW,291,11.0,-999.0,71,-99.99,,,0.03,weatherlink.com 1.10,2013-06-14 00:23:00,
2013-06-13 20:38:00,82.6,73.0,29.86,West,259,7.0,-999.0,73,-99.99,,,0.03,weatherlink.com 1.10,2013-06-14 00:38:00,
2013-06-13 20:53:00,82.4,73.0,29.86,WSW,254,5.0,-999.0,73,-99.99,,,0.03,weatherlink.com 1.10,2013-06-14 00:53:00,
2013-06-13 21:09:00,82.3,73.0,29.85,WSW,252,7.0,-999.0,74,-99.99,,,0.03,weatherlink.com 1.10,2013-06-14 01:09:00,
2013-06-13 21:24:00,82.3,74.0,29.86,West,279,5.0,-999.0,75,-99.99,,,0.03,weatherlink.com 1.10,2013-06-14 01:24:00,
2013-06-13 21:39:00,82.3,74.0,29.86,West,268,4.0,-999.0,75,-99.99,,,0.03,weatherlink.com 1.10,2013-06-14 01:39:00,
2013-06-13 21:54:00,82.2,74.0,29.86,West,271,4.0,-999.0,76,-99.99,,,0.03,weatherlink.com 1.10,2013-06-14 01:54:00,
2013-06-13 22:09:00,82.0,74.0,29.86,WNW,294,5.0,-999.0,76,-99.99,,,0.03,weatherlink.com 1.10,2013-06-14 02:09:00,
2013-06-13 22:24:00,81.7,74.0,29.87,West,278,4.0,-999.0,77,-99.99,,,0.03,weatherlink.com 1.10,2013-06-14 02:24:00,
2013-06-13 22:39:00,81.2,74.0,29.88,WNW,294,4.0,-999.0,78,-99.99,,,0.03,weatherlink.com 1.10,2013-06-14 02:39:00,
2013-06-13 22:54:00,81.0,74.0,29.88,WNW,288,5.0,-999.0,78,-99.99,,,0.03,weatherlink.com 1.10,2013-06-14 02:54:00,
2013-06-13 23:09:00,80.7,74.0,29.88,NW,319,3.0,-999.0,79,-99.99,,,0.03,weatherlink.com 1.10,2013-06-14 03:09:00,
2013-06-13 23:24:00,80.6,73.0,29.89,NNW,338,2.0,-999.0,78,-99.99,,,0.03,weatherlink.com 1.10,2013-06-14 03:24:00,
2013-06-13 23:39:00,80.5,73.0,29.88,WNW,297,3.0,-999.0,78,-99.99,,,0.03,weatherlink.com 1.10,2013-06-14 03:39:00,
2013-06-13 23:54:00,80.2,73.0,29.88,WNW,292,2.0,-999.0,79,-99.99,,,0.03,weatherlink.com 1.10,2013-06-14 03:54:00,